Theta_e
304 302 302 301 301 301 301 301 301 302 302 302 303 304 305 306 307 311 318 315 316 318 327 340 344 346 351 354 346 346 354 353 352 347 348 351 354 352 349 353 350 351 350 347 348
309 306 303 302 302 302 301 301 301 301 302 302 303 304 305 306 311 318 318 317 316 318 325 345 345 343 339 343 349 347 352 350 345 342 343 349 353 352 353 354 354 352 349 348 348
310 306 303 303 302 302 301 301 301 301 302 302 303 304 305 307 319 315 321 323 320 317 325 327 336 339 340 338 347 349 350 346 344 343 341 350 353 351 354 356 352 354 352 350 349
308 305 304 303 303 302 302 302 302 302 302 302 303 304 306 314 313 320 321 323 319 317 321 327 322 321 326 330 342 347 343 342 341 341 338 351 350 353 351 351 349 350 351 350 349
306 304 304 305 304 304 303 303 302 302 302 303 304 306 314 320 317 316 319 321 321 320 327 326 322 320 325 327 342 344 343 343 342 339 337 338 342 352 349 348 349 350 351 350 349
305 305 305 305 306 306 305 304 304 304 303 304 306 313 316 309 314 316 316 319 321 327 327 324 323 321 324 327 337 343 343 343 341 338 340 337 340 343 349 349 349 351 351 350 351
304 304 304 304 305 305 305 306 306 305 305 306 310 317 320 311 316 321 317 319 321 322 324 324 323 324 325 327 328 331 340 344 344 340 340 337 345 352 350 349 348 347 349 351 350
304 304 303 302 303 303 305 307 308 306 310 311 313 321 319 314 316 315 317 317 323 322 327 326 325 323 323 323 324 324 325 327 330 340 340 336 346 352 349 349 348 347 347 347 349
304 304 303 301 301 301 304 308 308 313 311 313 320 321 321 321 322 319 317 318 322 325 326 326 323 322 323 323 320 321 323 325 326 330 341 340 341 350 350 350 350 348 347 348 346
304 303 304 301 300 302 304 309 316 319 323 323 324 323 320 323 328 323 321 319 320 319 322 323 321 322 318 318 322 322 324 324 326 330 341 340 339 345 351 351 351 350 349 348 347
303 304 304 303 301 302 307 312 310 312 323 323 324 324 321 323 325 324 322 320 319 321 322 320 319 321 322 320 321 322 323 324 326 329 341 340 340 340 348 349 350 349 349 348 347
304 304 304 303 303 306 308 310 314 312 309 311 316 318 321 322 326 326 323 321 319 319 317 320 320 320 322 322 322 321 322 323 325 327 339 342 343 339 344 346 348 348 347 347 346
304 304 304 304 304 308 305 308 310 310 307 310 312 313 314 318 321 324 321 319 320 317 318 318 320 322 323 323 323 322 322 323 325 328 342 344 347 344 340 342 344 345 345 345 345
305 305 305 303 304 303 308 309 309 310 308 312 311 312 313 314 315 319 323 321 320 320 318 318 321 322 322 324 324 321 323 324 326 328 339 341 346 347 343 338 338 344 344 344 344
305 304 304 303 304 306 305 308 309 308 320 321 317 315 312 314 317 319 320 322 322 322 321 323 323 323 324 324 324 323 323 324 325 326 334 343 343 341 343 345 340 340 343 343 343
304 304 304 304 304 306 307 308 310 310 317 318 320 315 314 314 318 323 323 324 323 324 323 323 322 323 323 324 324 323 321 321 325 324 335 332 344 340 344 345 343 342 341 343 343
304 304 304 304 305 306 309 308 307 312 316 323 317 316 315 314 316 318 327 326 325 324 325 325 324 322 323 322 321 321 318 319 322 324 327 330 339 340 339 344 344 343 341 341 342
303 303 304 304 304 306 309 308 311 315 315 316 316 318 320 316 315 316 318 328 325 320 322 325 326 323 321 323 322 317 319 320 322 325 326 325 338 339 337 340 344 343 343 340 340
303 304 305 305 306 306 306 312 310 313 314 315 315 317 317 319 318 316 316 319 326 319 320 322 324 325 325 323 322 320 318 318 318 322 326 327 331 331 337 338 344 345 344 342 340
304 304 305 305 308 308 307 312 311 313 314 315 316 317 317 317 318 317 316 318 318 319 318 319 323 323 326 323 322 322 317 319 313 320 321 323 329 332 332 340 340 345 344 343 340
305 302 305 305 304 306 311 310 312 312 313 313 314 314 315 316 317 317 318 318 319 320 319 320 318 322 324 325 324 322 319 317 316 317 321 321 323 323 327 332 338 344 343 342 341
303 303 304 304 302 304 311 310 311 312 312 312 313 313 314 315 316 316 318 318 318 319 318 318 318 321 321 321 324 324 322 317 321 318 318 321 323 327 325 331 339 340 341 341 341
302 301 304 305 304 306 308 311 312 313 312 313 313 314 314 315 317 317 319 320 319 320 321 322 318 320 319 320 321 322 322 321 313 315 321 323 322 322 322 334 338 339 338 339 337
300 303 299 301 306 306 309 312 312 311 311 311 311 313 315 316 314 317 318 319 317 318 323 316 322 320 324 322 322 321 324 321 320 321 320 321 322 322 324 333 338 339 339 338 337
300 302 302 305 306 306 306 308 310 310 309 309 311 311 315 317 317 318 317 316 315 319 316 315 318 320 321 323 323 324 325 324 321 321 321 321 319 318 318 328 335 337 338 338 337
304 303 304 305 304 304 305 306 308 310 310 311 311 311 310 314 315 314 312 312 315 315 314 314 318 317 323 325 323 324 324 325 324 323 321 319 319 318 320 323 330 334 336 336 332
304 304 305 304 302 303 303 305 306 308 309 310 309 311 311 309 309 310 309 311 312 314 314 315 316 318 322 324 324 324 325 325 325 325 323 321 321 321 323 329 331 334 334 336 333
Wind_Speed
24 24 24 25 25 26 26 26 26 25 26 27 25 24 22 23 25 16 8 27 17 23 12 15 15 16 18 9 5 4 3 3 4 7 6 21 16 13 8 21 11 6 11 29 36
26 27 27 27 27 27 27 27 28 27 28 27 26 25 22 22 20 16 37 33 28 20 20 19 11 14 5 9 5 5 3 6 6 5 1 21 24 17 12 20 7 15 17 31 32
27 29 30 30 30 30 30 30 30 28 30 28 26 24 20 16 5 9 12 12 20 26 22 21 14 7 6 5 7 7 6 6 6 10 6 23 24 19 25 17 21 24 24 26 30
30 32 32 32 32 32 33 33 32 30 32 30 26 21 14 3 6 2 8 2 16 23 19 13 6 6 6 9 6 4 9 11 5 6 9 20 21 20 23 13 24 25 29 27 22
33 35 36 35 34 35 35 36 35 34 35 29 21 15 3 2 13 18 3 4 13 20 17 9 8 6 6 5 9 4 6 14 13 10 12 12 18 19 14 22 22 23 26 25 24
36 37 38 37 36 37 38 38 36 36 35 28 16 7 2 8 15 15 15 17 10 19 13 11 7 8 4 7 8 8 15 17 15 15 9 11 7 7 17 23 24 26 27 25 23
37 38 40 39 37 38 40 39 39 38 35 23 10 4 5 21 8 3 16 22 24 19 6 21 22 3 3 7 4 6 6 14 16 12 4 15 6 15 24 26 26 25 24 23 22
37 39 42 40 38 40 41 41 41 38 22 13 7 7 9 11 15 26 20 28 25 26 23 18 21 11 5 6 7 3 3 4 14 19 10 10 10 22 26 26 23 22 20 21 22
39 41 43 44 42 43 44 40 35 10 6 8 9 6 11 8 8 27 24 14 25 26 25 22 6 7 5 4 5 2 5 7 11 9 16 5 4 24 23 24 22 21 20 16 15
40 41 44 44 44 44 46 33 9 7 7 5 2 2 8 6 5 8 22 24 6 9 8 5 4 6 1 4 7 5 3 6 6 2 17 5 8 22 23 24 24 22 20 20 17
39 40 44 47 45 48 32 9 4 2 3 8 7 7 13 6 12 9 20 14 6 5 9 6 5 13 11 7 6 4 5 8 11 4 4 17 19 20 25 22 22 21 21 21 23
40 41 44 49 49 21 10 4 1 13 12 15 23 26 37 7 8 8 22 9 7 8 6 4 13 8 8 7 10 9 13 17 9 10 8 10 20 19 25 26 27 24 22 23 20
40 41 45 50 36 5 25 8 26 31 5 8 14 16 13 18 15 19 9 8 8 8 12 12 8 12 10 11 11 15 16 15 9 7 1 8 3 3 9 14 17 22 24 22 24
39 41 44 52 8 34 13 25 29 22 4 8 6 8 10 10 10 20 12 15 6 17 8 10 12 13 18 14 14 13 15 14 8 4 7 6 4 6 10 9 14 20 21 22 23
39 41 42 42 19 10 18 27 35 2 5 4 5 6 8 12 7 13 23 5 14 8 8 10 19 19 16 18 18 14 12 10 10 6 4 4 4 7 9 12 11 18 24 23 24
37 39 41 28 17 22 20 34 7 4 8 7 5 6 7 5 3 3 11 6 5 12 10 18 8 15 16 13 17 14 7 8 3 5 8 14 13 6 11 12 17 17 20 26 24
37 37 41 30 8 13 23 6 3 5 5 3 5 8 6 8 7 4 21 17 16 11 20 10 18 6 10 10 11 11 7 5 7 8 10 10 6 12 18 19 24 23 22 25 25
38 40 40 36 32 19 10 3 6 5 9 8 13 13 4 4 7 5 6 19 17 4 6 12 9 19 11 17 15 9 15 9 10 4 5 6 9 13 15 17 26 27 22 22 24
36 37 29 30 16 13 3 4 7 5 5 15 11 4 7 6 14 8 16 14 21 16 10 8 13 4 15 13 17 10 10 12 6 3 2 4 7 6 10 12 24 25 22 23 27
26 14 18 17 7 14 3 4 5 3 13 10 3 4 10 13 12 18 6 7 13 16 13 8 4 12 18 17 17 18 7 4 2 15 17 5 6 8 8 14 14 22 25 26 23
10 4 16 15 24 3 6 7 5 18 10 7 13 14 16 13 5 8 11 15 1 7 21 19 9 10 5 15 17 11 11 3 6 8 12 7 16 9 10 10 14 22 26 26 24
7 4 10 35 4 2 7 6 10 14 19 12 10 15 9 11 10 8 11 10 19 18 12 13 15 16 25 12 12 20 15 11 9 7 6 16 25 3 10 9 11 19 25 25 17
3 4 14 6 4 6 10 9 7 7 5 6 4 4 6 4 5 7 10 10 22 15 8 8 6 10 9 14 16 8 13 19 5 5 18 9 8 7 5 6 9 9 8 10 8
2 4 4 3 4 9 11 7 10 12 10 7 8 2 6 2 4 6 11 10 21 16 20 11 6 12 19 13 6 8 17 12 19 15 11 22 5 6 1 7 9 14 15 16 13
1 4 2 5 6 11 8 8 12 9 7 5 4 8 4 3 5 4 7 15 12 7 13 6 6 4 13 15 21 14 12 21 22 24 22 16 13 10 9 9 8 14 14 14 19
2 3 3 5 7 7 5 5 11 8 6 7 6 10 5 4 6 13 16 8 4 7 9 6 5 7 7 10 22 24 20 19 23 23 19 6 7 10 13 9 7 11 13 14 10
4 8 3 4 4 5 3 9 15 7 10 5 9 7 9 12 12 12 10 13 8 5 13 4 4 8 6 6 18 20 31 17 11 16 17 15 10 9 8 8 10 10 8 12 9
Wind_Direction
357 355 351 350 348 347 346 344 341 337 335 331 328 326 324 320 312 300 239 252 243 241 211 173 190 173 171 188 139 134 261 276 274 90 157 153 135 162 129 136 159 206 144 166 165
353 351 349 347 344 342 341 339 337 334 333 329 325 324 326 324 318 270 279 273 252 221 194 170 181 180 190 179 172 164 186 236 212 151 161 152 150 148 139 151 152 115 133 159 163
350 349 347 345 342 340 339 336 335 332 332 328 323 322 328 326 311 250 312 285 224 215 210 210 209 164 208 159 185 198 221 214 252 227 165 144 146 150 150 174 160 151 154 164 165
350 348 346 343 340 338 335 333 331 329 329 327 323 320 330 321 278 263 327 40 174 199 212 213 226 184 199 204 189 195 261 241 217 132 143 165 156 162 165 175 162 158 160 163 169
348 348 346 342 339 336 333 331 328 326 327 324 321 324 352 256 247 239 298 86 171 185 192 200 211 166 208 200 181 219 239 266 272 279 142 185 165 167 169 147 157 154 160 169 173
352 349 346 342 338 335 332 328 324 320 322 318 311 317 194 241 265 278 234 233 185 180 197 184 212 206 284 235 188 202 235 253 256 251 151 153 197 108 150 150 156 159 169 173 171
351 347 344 342 337 333 329 325 321 318 315 303 275 210 247 235 258 46 219 226 219 198 190 210 212 212 177 291 269 203 223 254 261 256 224 119 147 155 152 153 162 165 169 177 177
348 345 342 339 336 332 328 323 318 317 302 276 203 176 245 261 271 257 245 257 239 227 222 228 210 223 202 279 327 351 142 220 249 250 175 130 182 153 159 158 167 170 174 166 181
344 343 342 339 335 333 329 319 322 333 340 143 142 180 268 285 228 244 233 205 219 230 235 227 179 201 261 218 356 10 236 243 294 181 170 129 181 165 166 161 167 174 181 179 179
343 342 342 338 335 334 327 323 11 101 84 125 273 328 266 254 225 228 208 212 173 209 234 217 179 207 331 132 221 214 245 268 242 134 174 161 153 161 171 166 173 179 181 185 189
343 342 343 338 334 333 329 353 9 6 191 254 222 257 292 284 320 219 181 185 168 153 192 215 183 225 222 206 225 229 246 253 270 335 87 161 165 172 175 175 178 182 185 190 188
342 342 342 338 333 341 10 346 311 321 294 249 245 246 245 265 312 298 179 163 164 201 151 236 230 210 199 214 225 232 249 262 307 280 167 200 178 174 175 184 183 184 187 192 194
341 341 342 338 338 45 331 272 335 346 267 267 228 236 232 199 224 253 186 172 177 188 200 208 222 199 201 224 225 232 232 250 235 312 265 130 42 169 195 191 192 192 188 191 191
339 339 341 339 356 332 301 332 334 344 315 274 229 250 172 150 218 220 202 179 179 199 190 231 227 206 210 221 218 238 233 242 249 276 244 163 222 214 223 215 192 196 194 195 197
335 336 336 337 302 307 309 329 335 5 310 218 230 142 154 169 159 207 198 202 179 170 165 218 194 216 212 214 216 242 239 235 227 233 217 264 128 245 160 222 211 196 197 196 197
333 332 333 332 296 294 326 323 333 48 247 287 187 151 136 242 264 150 160 204 165 195 214 220 234 201 216 219 219 226 249 253 211 201 228 227 214 239 211 211 222 203 202 198 197
331 329 321 308 250 313 325 339 76 209 311 274 354 345 303 168 236 158 184 192 199 175 212 222 231 234 196 202 221 197 171 252 248 230 234 208 226 227 208 211 204 206 203 200 197
330 324 316 292 282 284 327 62 212 222 255 41 345 318 223 64 245 214 162 208 214 163 180 205 244 214 214 207 213 196 201 203 213 213 251 214 222 232 228 213 199 207 204 198 198
333 328 300 301 306 220 93 191 210 208 25 348 345 345 1 14 5 345 208 205 212 189 187 181 235 265 209 218 193 219 205 202 197 207 268 221 250 295 243 207 208 206 194 199 200
329 309 277 318 336 151 111 254 241 3 3 352 308 294 6 350 332 2 307 262 217 202 196 219 279 219 235 215 241 209 179 187 241 222 240 240 220 233 203 221 198 203 200 200 197
320 330 291 350 340 138 215 215 277 295 338 357 317 293 295 308 248 293 268 319 326 260 212 212 195 240 210 225 218 209 209 230 173 196 225 241 251 192 235 219 206 199 197 202 192
335 306 292 321 14 283 229 195 257 272 286 281 273 282 295 348 298 271 248 220 324 324 309 278 216 230 230 221 205 222 214 184 215 234 235 227 244 132 207 230 206 212 203 205 189
312 260 318 300 7 359 349 346 6 353 346 339 301 39 24 19 336 331 325 333 17 9 359 324 231 231 255 251 243 199 223 217 134 133 222 210 244 187 195 207 217 184 168 174 180
338 315 316 9 40 8 358 349 337 327 292 349 317 43 13 307 213 301 317 346 343 339 343 345 243 244 237 221 184 197 222 210 210 215 216 233 202 280 151 206 221 201 205 187 186
231 261 305 322 342 335 337 276 333 343 357 346 348 2 92 314 307 289 332 327 335 346 350 21 282 282 290 261 207 200 195 211 214 219 211 228 207 231 235 206 225 231 208 202 194
266 306 319 280 293 319 316 300 350 345 302 321 351 319 310 203 251 299 317 319 230 321 348 333 282 331 275 255 229 217 222 228 216 216 228 172 209 186 232 194 223 207 222 195 211
249 265 270 296 281 309 257 341 312 324 285 291 309 305 293 290 283 277 279 276 229 255 289 268 311 354 278 311 218 233 215 204 208 216 212 205 197 188 191 197 201 221 214 230 209